THOR ABLESTAR R/B, 703

Orbit data source: Space-Track

THOR ABLESTAR R/B, 703 is space debris in LEO originally from a launch on Thu, 05 Dec 1963 UTC launched from the Air Force Western Test Range (AFWTR). Debris objects in space refer to the collection of defunct objects orbiting the Earth. Examples of debris include non-operational satellites, rocket bodies, and fragments generated from explosions, collisions, or faulty payload assembly.

Loading next visibility...
Identifier
703, 1963-049A
Orbit
LEO
Country
Flag of USUS
Related business
Manufacturer
Aerojet
Mission
Spacecraft
Bus & Motor
ABLESTAR, Unknown motor
Mass
~600 kg wet, 600 kg dry
Launch date (UTC)
1963-12-05 (63 years ago)
Launch vehicle
Unknown
Launch site
Air Force Western Test Range (AFWTR)
Object type
Payload
Rocket body
Debris
Shape & HBR
Unknown
Radar Cross Section
Large (>1 m²)

Expand to show TLE details & history
Last TLE update: 17 hours ago

TLE from 17 hours ago
0 THOR ABLESTAR R/B
1 00703U 63049A   26175.18254867  .00000019  00000-0  14269-4 0  9990
2 00703  89.9267  70.1609 0014165 247.9770 227.0607 13.50001448 80209
Epoch: 2026-06-24T04:22Z
TLE epoch observation values (Epoch: 2026-06-24T04:22:52.205Z)
Latitude
65.16223°
Longitude
-88.0576°
Altitude
1,090.786 km
Speed
7.309 km/s
True Right ascension
16h 40m 00s
True Declination
65° 02' 12"
Sunlit
Object was in daylight at epoch
Visualization orbit readout
Latitude
Unknown
Longitude
Unknown
Altitude
Unknown
Speed
Unknown
Apparent Right ascension
Unknown
Apparent Declination
Unknown
Sunlit
N/A
Visualization observer readout
Local Sidereal Time
08:49:48
Azimuth
Unknown
Elevation
Unknown
Doppler factor
Unknown
Orbital elements
Apogee altitude
1,079.852 km
Perigee altitude
1,058.754 km
Semi-major axis
7,447.44 km
Eccentricity
0.00142
Inclination
89.9267°
RAAN
70.1609°
Arg. of periapsis
247.977°
True anomaly
226.94201°
Mean anomaly
227.0607°
Eccentric anomaly
227.00134°
Mean motion
3.37701 °/min
Orbital period
106.6 mins
BSTAR
0.000014269
Loading maneuver chart data...
Computing Atmospheric mass density...
Loading historical data...
Loading historical data...
Loading historical data...
Loading historical data...
Loading historical data...
Loading historical data...
Loading historical data...

Documentation

Showing up to 5 results
|